CZ-6A DEB, 57578

Orbit data source: Space-Track

CZ-6A DEB, 57578 is space debris in SSO originally from a launch on Fri, 11 Nov 2022 UTC launched from the Taiyaun Space Center, China (TSC). Debris objects in space refer to the collection of defunct objects orbiting the Earth. Examples of debris include non-operational satellites, rocket bodies, and fragments generated from explosions, collisions, or faulty payload assembly.

Loading next visibility...
Identifier
57578, 2022-151AHV
Orbit
SSO
Country
Flag of CNCN / PRC
Related business
Manufacturer
SAST
Mission
Spacecraft
Bus & Motor
Unknown
Mass
Unknown
Launch date (UTC)
2022-11-11 (4 years ago)
Launch vehicle
Unknown
Launch site
Taiyaun Space Center, China (TSC)
Object type
Payload
Rocket body
Debris
Shape & HBR
Unknown shape, 0.1 m
Radar Cross Section
Small (<0.1 m²)

Expand to show TLE details & history
Last TLE update: 6 days ago

TLE from 6 days ago
0 CZ-6A DEB
1 57578U 22151AHV 26167.88451500  .00002089  00000-0  78057-3 0  9995
2 57578  98.8502 220.0758 0044708 345.9633  14.0305 14.32407178164085
Epoch: 2026-06-16T21:13Z
TLE epoch observation values (Epoch: 2026-06-16T21:13:42.095Z)
Latitude
0.00009°
Longitude
-3.49976°
Altitude
755.561 km
Speed
7.493 km/s
True Right ascension
14h 40m 18s
True Declination
0° 00' 00"
Sunlit
Object was in full shadow at epoch
Visualization orbit readout
Latitude
Unknown
Longitude
Unknown
Altitude
Unknown
Speed
Unknown
Apparent Right ascension
Unknown
Apparent Declination
Unknown
Sunlit
N/A
Visualization observer readout
Local Sidereal Time
21:28:10
Azimuth
Unknown
Elevation
Unknown
Doppler factor
Unknown
Orbital elements
Apogee altitude
812.851 km
Perigee altitude
748.838 km
Semi-major axis
7,158.982 km
Eccentricity
0.00447
Inclination
98.8502°
RAAN
220.0758°
Arg. of periapsis
345.9633°
True anomaly
14.15538°
Mean anomaly
14.0305°
Eccentric anomaly
14.09287°
Mean motion
3.58316 °/min
Orbital period
100.47 mins
BSTAR
0.00078057
Loading maneuver chart data...
Computing Atmospheric mass density...
Loading historical data...
Loading historical data...
Loading historical data...
Loading historical data...
Loading historical data...
Loading historical data...
Loading historical data...

Documentation

Showing up to 5 results
|